Wind_Speed
31 27 22 21 20 20 21 20 19 21 20 19 17 16 16 14 14 12 13 14 14 16 18 20 21 23 19 16 14 14 17 18 18 18 17 18 19 19 17 16 16 16 15
29 32 27 23 23 23 22 22 20 20 20 18 19 19 16 16 16 15 13 15 16 17 20 22 27 28 22 18 16 13 14 18 19 20 19 20 20 19 19 17 17 15 13
32 33 33 28 25 24 25 26 23 21 20 21 20 19 17 18 18 17 16 14 16 19 21 22 29 41 21 17 17 16 15 19 20 19 22 21 21 19 20 18 17 16 15
36 34 35 35 31 28 29 26 27 25 21 22 20 21 21 19 18 18 18 17 16 19 20 19 22 22 16 17 16 18 19 21 20 20 22 23 23 22 20 19 18 17 16
37 36 33 37 37 37 33 29 26 29 24 25 22 22 21 21 20 20 20 20 21 26 21 18 17 20 29 18 17 17 22 24 23 23 23 23 24 23 21 20 19 18 16
39 38 29 32 37 39 37 37 32 29 26 27 21 19 18 18 19 19 20 22 27 30 31 30 21 19 26 24 19 18 23 26 25 24 24 24 25 24 22 21 21 19 18
37 38 36 36 37 39 41 39 38 34 31 28 23 23 22 23 22 22 22 21 24 30 32 26 27 24 34 30 25 21 22 24 26 25 25 25 25 25 24 24 22 21 20
38 38 39 39 41 41 42 41 42 40 36 35 33 25 19 21 27 27 25 26 32 33 32 31 31 29 27 35 30 26 24 26 26 28 27 26 26 26 26 25 24 22 21
44 42 42 42 42 42 42 43 42 42 41 39 34 20 11 16 12 16 24 25 30 34 34 31 31 27 27 28 25 28 27 27 28 29 29 27 27 28 28 27 26 24 22
49 49 46 44 40 41 42 43 43 43 41 41 37 35 26 14 12 9 12 18 21 25 27 23 30 29 30 33 31 29 29 31 31 30 29 29 29 29 28 28 28 26 25
55 55 50 47 42 40 41 43 43 43 42 42 41 36 29 27 25 25 21 14 21 25 24 28 27 28 32 36 37 35 34 32 35 33 31 29 30 31 30 29 29 29 27
54 55 54 50 45 42 42 42 42 41 42 42 39 28 26 28 27 27 23 26 25 20 22 24 25 29 29 30 46 44 39 32 34 37 36 33 31 31 30 30 29 30 29
44 52 54 52 48 45 41 39 38 41 40 40 38 34 27 28 27 23 26 25 24 23 21 26 29 31 27 29 31 45 40 34 33 36 39 38 35 33 32 32 30 30 29
40 43 52 53 49 44 38 36 35 37 38 36 36 38 30 31 28 27 29 25 23 28 30 32 31 28 30 31 31 42 41 38 36 35 41 42 39 37 34 32 31 29 29
36 38 46 48 48 45 41 35 39 38 34 31 36 37 35 32 28 29 32 28 31 26 25 32 25 31 29 28 33 40 43 39 38 37 38 40 41 42 38 36 34 31 30
30 33 36 39 43 42 40 39 40 37 33 32 37 35 34 33 33 33 35 35 34 36 35 26 24 26 29 26 33 42 46 43 38 39 39 39 39 40 41 39 37 35 34
27 30 28 31 37 41 41 41 38 33 33 30 30 30 31 30 32 32 32 35 35 35 39 38 33 32 34 32 35 40 45 45 40 42 40 42 41 40 39 39 37 37 37
27 28 28 27 33 35 36 34 30 28 31 28 27 28 29 26 29 29 28 32 36 36 37 35 36 37 37 34 34 39 45 47 48 36 38 42 43 42 41 40 39 38 37
21 22 24 25 27 24 25 27 27 27 26 25 26 25 23 21 25 29 32 34 35 37 39 41 42 37 36 37 37 33 40 47 50 38 35 39 42 42 40 40 40 39 38
20 22 22 21 21 21 23 22 22 22 24 23 22 22 24 25 27 30 34 37 38 43 40 45 42 40 43 41 37 38 42 44 47 45 42 41 41 43 41 40 41 41 40
21 22 22 22 24 24 24 23 19 18 18 20 20 22 24 26 28 31 34 35 35 39 41 48 40 41 39 40 44 43 42 46 43 46 45 43 40 43 43 43 42 41 41
25 24 23 21 19 18 18 18 16 17 19 21 21 20 19 19 23 22 26 30 36 43 40 43 42 43 46 47 44 44 45 47 47 48 46 46 44 45 45 45 45 44 42
23 20 16 11 6 5 10 13 14 15 16 18 18 19 20 21 21 22 24 30 31 32 37 44 44 50 47 50 49 47 48 55 52 49 50 47 45 43 44 43 42 43 44
29 23 19 15 7 3 7 12 13 13 14 16 17 18 18 19 20 20 20 22 24 26 28 31 32 41 46 51 55 54 47 54 48 46 46 44 43 42 40 38 38 39 41
34 34 27 26 19 20 14 7 0 6 8 9 12 13 14 16 19 21 20 17 15 18 21 25 23 26 46 44 48 48 44 51 49 46 47 46 45 40 34 35 34 31 30
36 34 35 32 31 29 25 20 14 10 7 5 6 8 10 11 15 18 15 13 12 12 13 14 15 20 28 36 40 47 52 52 49 37 48 46 46 45 23 27 27 26 25
Wind_Direction
216 212 206 208 210 211 211 210 204 209 212 218 215 217 219 219 222 225 231 218 218 229 229 237 239 223 222 224 226 229 223 220 206 200 196 187 181 178 178 177 174 172 168
218 219 211 209 210 213 211 213 210 209 214 217 223 222 222 225 228 223 228 234 233 238 240 238 238 230 225 222 227 229 229 216 204 202 193 191 185 183 184 182 179 177 170
223 222 222 214 211 213 216 217 215 212 217 219 225 227 227 227 229 230 229 232 246 235 243 247 241 251 221 230 232 225 226 205 203 199 192 192 190 189 189 186 184 181 178
231 229 228 226 217 212 216 216 218 221 217 221 224 232 234 233 235 234 233 233 235 235 235 251 260 262 236 242 234 222 210 198 202 200 195 195 197 195 193 190 189 187 185
235 231 230 229 228 226 225 217 217 223 220 221 223 232 239 243 239 240 237 236 243 238 239 263 279 243 234 226 238 230 211 201 203 205 200 198 202 200 196 195 192 193 194
232 230 221 229 227 227 227 228 224 220 220 228 223 226 234 237 241 241 245 251 251 252 256 259 268 259 231 230 240 236 217 211 205 209 205 203 204 204 200 198 196 196 199
230 229 231 233 238 232 227 226 226 227 223 220 227 231 238 246 246 243 243 245 252 250 255 266 269 251 259 215 233 234 225 216 207 210 210 210 207 206 205 204 202 202 203
232 235 239 240 237 234 227 227 227 225 227 228 225 231 238 244 248 248 248 252 257 255 259 265 269 257 248 228 226 229 223 223 216 212 212 213 212 210 207 209 207 208 210
231 237 238 240 237 233 233 231 229 226 224 228 221 216 215 231 241 246 247 248 257 257 259 267 266 256 236 235 217 230 223 221 219 219 216 217 215 216 213 212 212 212 213
228 230 235 239 239 236 234 233 233 230 226 229 224 225 229 236 205 228 248 249 253 258 267 259 264 249 250 238 221 231 229 216 217 222 222 218 219 219 219 217 215 215 216
235 232 232 237 237 236 235 234 233 231 230 229 231 224 225 233 235 243 258 255 264 262 264 262 259 251 249 241 228 226 233 218 216 219 221 223 225 223 224 222 220 220 220
235 236 233 234 234 234 233 235 235 236 234 232 235 221 223 224 233 234 247 253 256 265 272 257 262 260 269 250 241 226 228 223 219 220 217 221 223 226 227 229 226 223 222
230 232 230 230 232 231 233 234 235 236 235 236 230 232 229 233 235 242 242 253 253 261 253 264 269 271 262 272 243 227 228 230 222 224 220 218 221 224 226 230 233 226 224
229 227 229 229 230 231 231 232 236 238 236 238 235 239 235 244 242 239 241 251 250 257 255 263 274 262 267 255 256 220 227 230 225 228 225 220 221 224 225 228 233 233 232
229 224 226 228 227 228 227 224 235 236 231 239 239 239 242 246 241 243 247 243 254 254 253 259 246 269 262 255 242 233 231 232 229 229 228 225 224 223 225 229 232 232 233
222 226 229 226 226 225 224 224 229 235 232 235 238 240 242 248 251 253 256 259 261 262 259 265 252 254 260 265 248 235 236 232 235 232 229 226 225 223 225 229 231 232 233
223 223 227 223 220 221 221 224 228 233 232 234 238 243 247 248 254 258 261 265 260 256 253 262 263 257 270 265 250 244 234 232 233 234 230 228 227 226 227 229 232 234 236
218 227 223 222 216 219 222 222 228 233 234 229 243 245 248 247 254 257 258 259 256 258 258 249 264 254 259 253 259 252 244 236 228 235 229 229 228 229 230 232 233 234 234
221 221 217 210 198 207 217 221 225 229 227 235 243 239 246 247 252 256 261 266 257 258 254 265 257 257 254 253 251 252 246 235 226 228 233 228 228 229 230 231 230 230 231
185 192 189 192 189 191 198 200 203 211 219 227 239 244 249 255 261 266 266 262 265 266 265 254 250 243 249 258 254 242 236 235 226 226 226 227 224 224 225 226 227 228 230
165 169 173 179 182 188 191 195 206 214 226 238 246 250 251 255 262 262 261 262 266 266 267 250 253 246 240 233 245 242 233 228 218 227 228 226 222 223 224 226 228 229 232
144 151 160 165 172 185 193 204 218 227 241 242 240 241 248 263 267 275 270 270 260 256 254 257 256 243 241 239 244 238 226 221 223 229 226 223 224 224 226 228 230 231 231
113 119 122 133 150 188 217 218 215 217 226 234 245 257 264 274 277 284 280 280 266 252 254 259 255 242 238 246 244 236 221 229 220 220 217 218 220 222 224 225 225 227 229
77 83 88 85 96 61 208 232 221 217 227 243 254 264 271 275 284 289 295 289 266 264 264 263 269 241 239 249 246 242 241 227 222 223 214 209 212 212 209 211 215 220 224
65 63 63 61 60 56 59 63 79 218 230 244 255 262 272 279 283 286 288 298 285 286 289 285 280 283 244 230 234 228 213 216 207 207 204 212 202 196 195 200 206 213 216
67 66 64 63 63 60 59 56 55 42 18 359 337 325 317 306 286 282 281 289 295 292 288 286 286 280 257 242 233 221 226 216 209 196 198 199 202 196 171 190 198 204 208
Height
1509 1512 1517 1520 1524 1525 1527 1528 1529 1531 1535 1538 1540 1542 1542 1544 1546 1547 1547 1545 1547 1548 1550 1552 1552 1553 1553 1555 1556 1557 1558 1559 1559 1561 1563 1565 1567 1570 1572 1574 1575 1576 1578
1504 1506 1511 1515 1519 1521 1523 1525 1526 1528 1530 1534 1537 1538 1540 1542 1543 1545 1546 1543 1544 1545 1547 1546 1547 1548 1549 1551 1552 1553 1555 1556 1557 1559 1562 1564 1567 1569 1571 1573 1575 1576 1578
1501 1502 1504 1510 1513 1515 1517 1520 1524 1525 1526 1529 1532 1535 1536 1538 1539 1540 1542 1542 1541 1542 1543 1545 1546 1542 1545 1548 1550 1551 1552 1554 1555 1557 1559 1562 1565 1567 1569 1572 1574 1576 1578
1496 1499 1499 1502 1507 1509 1511 1514 1518 1521 1523 1524 1527 1530 1532 1534 1535 1536 1537 1538 1538 1539 1541 1543 1543 1531 1542 1547 1547 1548 1550 1552 1553 1555 1557 1560 1563 1565 1568 1571 1573 1575 1577
1488 1491 1494 1495 1500 1503 1506 1510 1512 1515 1519 1520 1522 1525 1528 1529 1531 1532 1533 1533 1533 1535 1536 1539 1541 1537 1539 1544 1544 1545 1548 1550 1551 1553 1555 1558 1561 1564 1566 1569 1572 1574 1576
1480 1483 1490 1489 1492 1497 1500 1503 1507 1510 1514 1516 1519 1521 1523 1525 1527 1528 1527 1528 1528 1529 1531 1532 1536 1536 1535 1538 1541 1543 1545 1547 1548 1550 1553 1555 1558 1562 1564 1567 1569 1571 1574
1471 1476 1480 1482 1484 1488 1491 1496 1500 1504 1508 1512 1515 1516 1517 1519 1521 1523 1523 1523 1522 1523 1525 1527 1528 1528 1527 1532 1538 1539 1541 1542 1544 1547 1550 1553 1555 1558 1562 1564 1566 1569 1571
1463 1468 1471 1473 1475 1479 1485 1488 1492 1496 1501 1505 1508 1512 1513 1515 1513 1516 1517 1516 1516 1518 1519 1520 1522 1524 1522 1526 1531 1534 1536 1538 1541 1543 1546 1549 1552 1555 1558 1561 1563 1566 1568
1454 1459 1460 1464 1467 1470 1476 1481 1485 1488 1492 1496 1501 1505 1508 1505 1509 1510 1510 1511 1511 1511 1513 1513 1514 1517 1520 1520 1524 1527 1530 1533 1536 1540 1542 1545 1548 1551 1554 1557 1559 1562 1565
1443 1446 1452 1455 1459 1463 1468 1472 1477 1482 1486 1488 1494 1497 1499 1501 1502 1505 1505 1505 1506 1505 1506 1506 1508 1511 1513 1516 1519 1521 1523 1527 1530 1534 1538 1541 1544 1546 1549 1552 1555 1557 1560
1433 1436 1442 1447 1451 1454 1460 1464 1469 1474 1478 1482 1483 1488 1492 1495 1496 1498 1499 1501 1500 1501 1501 1501 1502 1505 1506 1508 1511 1515 1517 1521 1524 1529 1533 1536 1539 1542 1545 1547 1550 1552 1555
1421 1426 1431 1437 1443 1447 1451 1456 1461 1466 1471 1475 1477 1483 1484 1487 1488 1491 1494 1495 1496 1495 1493 1494 1495 1496 1498 1500 1501 1506 1510 1515 1518 1522 1526 1530 1534 1537 1539 1542 1544 1547 1550
1410 1415 1421 1428 1434 1439 1444 1451 1456 1459 1464 1468 1472 1475 1479 1480 1484 1485 1487 1488 1489 1489 1488 1487 1488 1488 1489 1490 1493 1498 1503 1508 1512 1516 1520 1523 1527 1531 1534 1537 1539 1541 1544
1405 1411 1414 1419 1425 1432 1438 1444 1449 1454 1457 1462 1466 1468 1471 1472 1476 1479 1479 1482 1481 1480 1481 1480 1480 1480 1482 1484 1485 1491 1495 1501 1505 1509 1512 1516 1521 1524 1528 1530 1533 1536 1539
1400 1404 1409 1413 1418 1424 1430 1437 1441 1446 1450 1456 1461 1462 1464 1466 1469 1470 1471 1473 1474 1474 1472 1472 1476 1473 1476 1478 1482 1485 1488 1492 1497 1500 1504 1508 1512 1517 1520 1524 1527 1530 1533
1395 1400 1402 1407 1411 1417 1423 1427 1434 1440 1444 1449 1452 1455 1457 1459 1460 1462 1464 1465 1466 1466 1464 1465 1466 1470 1469 1471 1473 1477 1480 1486 1489 1492 1496 1500 1504 1508 1512 1516 1520 1523 1526
1391 1395 1397 1400 1406 1410 1415 1420 1427 1431 1437 1441 1445 1448 1450 1452 1454 1455 1456 1456 1457 1459 1457 1457 1458 1461 1461 1464 1466 1468 1472 1476 1480 1484 1488 1491 1495 1499 1504 1508 1511 1515 1518
1386 1390 1392 1396 1400 1405 1411 1416 1421 1425 1431 1435 1438 1441 1443 1445 1447 1448 1448 1447 1449 1450 1450 1448 1450 1451 1451 1454 1457 1459 1460 1465 1469 1474 1477 1481 1486 1490 1495 1499 1503 1507 1510
1382 1386 1389 1393 1398 1403 1409 1413 1417 1422 1426 1429 1432 1435 1437 1439 1440 1441 1441 1440 1440 1440 1441 1441 1440 1441 1443 1446 1448 1450 1450 1454 1460 1465 1468 1472 1477 1482 1486 1490 1494 1497 1501
1377 1380 1384 1389 1394 1399 1404 1408 1412 1417 1420 1423 1426 1429 1431 1433 1433 1433 1432 1432 1432 1430 1430 1430 1430 1431 1432 1436 1439 1440 1443 1444 1446 1452 1457 1462 1467 1472 1476 1480 1484 1488 1491
1374 1378 1383 1387 1391 1395 1399 1404 1409 1412 1415 1418 1421 1423 1423 1423 1423 1423 1422 1422 1423 1421 1421 1418 1419 1422 1421 1423 1425 1429 1433 1435 1437 1441 1448 1454 1459 1463 1466 1470 1475 1478 1482
1375 1378 1383 1387 1391 1394 1398 1401 1405 1406 1409 1412 1414 1414 1414 1416 1413 1414 1413 1413 1413 1412 1410 1411 1409 1409 1410 1412 1415 1418 1422 1422 1429 1432 1438 1444 1448 1453 1457 1461 1465 1468 1472
1376 1379 1382 1386 1389 1392 1396 1399 1401 1400 1404 1407 1407 1407 1408 1407 1406 1405 1404 1403 1401 1400 1400 1400 1397 1396 1399 1401 1404 1406 1408 1411 1414 1418 1425 1431 1437 1442 1447 1452 1455 1458 1462
1376 1381 1385 1389 1387 1391 1389 1394 1394 1397 1400 1401 1401 1401 1401 1401 1399 1398 1398 1395 1393 1391 1391 1390 1386 1387 1386 1389 1392 1393 1396 1401 1407 1411 1416 1422 1427 1432 1436 1440 1444 1448 1452
1385 1384 1387 1390 1391 1393 1391 1392 1393 1394 1396 1397 1396 1396 1396 1394 1393 1394 1393 1391 1386 1383 1381 1380 1379 1377 1378 1380 1383 1386 1385 1390 1392 1398 1403 1410 1417 1423 1427 1431 1434 1441 1442
1398 1399 1395 1401 1400 1398 1397 1395 1394 1395 1395 1396 1395 1394 1392 1391 1389 1389 1388 1385 1381 1380 1378 1375 1373 1371 1370 1372 1374 1374 1377 1379 1384 1387 1393 1399 1405 1414 1421 1425 1431 1432 1440